Location: Tuebingen alte Sternwarte
(48.5376°N, 9.0555°E)
Time: 15:08:52
(UTC+02:00)

OTV 5 (USA 277) - Pass Details

Date: 24 June 2018
Orbit: 312 x 321 km, 54.5° (Epoch: 05 July)

Event Time Altitude Azimuth Distance (km) Brightness Sun altitude
Rises 01:40:51 0° 298° (WNW) 2,052 ? -18.0°
Reaches altitude 10° 01:42:50 10° 294° (WNW) 1,221 ? -17.9°
Enters shadow 01:44:22 29° 281° (W) 623 ? -17.9°
